Weather in Starki

Russia / Kaluga Oblast     54°45′10″N   36°00′19″E
temp.,
°C
wind,
m/s
gust,
m/s
humid.,
%
clouds,
%
prec.,
mm/h
press.,
hPa
HPBL,
m
5 august, thu
thu500:00+16s117795 0.1 101716
03:00+13s22867 0.1 101724
06:00+13se238765 0.0 101763
09:00+19sse3463100 0.0 1016468
12:00+16wsw4791100 2.3 1016380
15:00+16e259499 4.8 1015211
18:00+20se247438 0.1 1013511
21:00+16se2390100 0.1 101245
6 august, fri
fri600:00+15se3586100 0.0 101289
03:00+15sse229564 0.8 101146
06:00+15sse249799 1.0 1011102
09:00+20sse3584100 1.1 1010358
12:00+18sse1297100 2.1 1011117
15:00+20e3685100 2.5 1010424
18:00+22ene5875100 0.0 1008354
21:00+19e5138090 0.0 1007341
7 august, sat
sat700:00+17e51386100 0.1 1006293
03:00+17ese3793100 0.1 1006141
06:00+18sse3589100 0.0 100798
09:00+23s467097 0.0 1007539
12:00+27s5953100 0.0 10071464
15:00+28s694898 0.0 10071921
18:00+25sw3767100 0.3 1007408
21:00+19w2492100 0.5 1009100
8 august, sun
sun800:00+18w369097 0.0 1011226
03:00+15wsw2394100 0.0 101351
06:00+13w3890100 0.0 1013200
09:00+18w3672100 0.0 1014497
12:00+22w3458100 0.0 10151176
15:00+24wsw344534 0.0 10151880
18:00+23wnw345680 0.0 1016750
21:00+18e11760 0.0 101711
9 august, mon
mon900:00+15ssw11850 0.0 101811
03:00+14wnw11860 0.0 101911
06:00+14wnw008349 0.0 101911
09:00+21ssw115974 0.0 1019354
12:00+26wsw11435 0.0 10191397
15:00+27ene013756 0.0 10181665
18:00+26nne114591 0.0 1017718
21:00+19e22628 0.0 101811